Voltar ao catálogo

STARLINK-11252

AtivoComunicaçõesVLEO
NORAD 61051·PAYLOAD·🇺🇸 United States

Lançado Sep 13, 2024 de Vandenberg Space Force Base

Loading…

Próximas Passagens (próximas 24 horas)

TLE

AtualizadoSource: CelesTrak SupGP

Época: Sep 15, 2026, 02:08 UTC

1 61051C 24164B   26258.08937500  .00066488  00000+0  54735-3 0  2581
2 61051  53.1562  97.5604 0001084  94.0779  20.3284 15.69691153    13

Acompanhe STARLINK-11252 em tempo real com AllMySat

Download on the App Store